TimeCDT,TemperatureF,Dew PointF,Humidity,Sea Level PressureIn,VisibilityMPH,Wind Direction,Wind SpeedMPH,Gust SpeedMPH,PrecipitationIn,Events,Conditions,WindDirDegrees,DateUTC
12:15 AM,68.0,60.8,78,30.07,10.0,SSE,8.1,-,N/A,,Clear,150,2013-05-27 05:15:00
12:35 AM,68.0,60.8,78,30.07,10.0,SSE,6.9,-,N/A,,Clear,150,2013-05-27 05:35:00
12:55 AM,68.0,60.8,78,30.07,10.0,SSE,9.2,-,N/A,,Clear,160,2013-05-27 05:55:00
1:15 AM,68.0,60.8,78,30.06,10.0,SSE,8.1,-,N/A,,Clear,160,2013-05-27 06:15:00
1:35 AM,66.2,60.8,83,30.06,10.0,SSE,6.9,-,N/A,,Clear,160,2013-05-27 06:35:00
1:55 AM,66.2,60.8,83,30.06,10.0,SSE,5.8,-,N/A,,Clear,160,2013-05-27 06:55:00
2:15 AM,66.2,59.0,78,30.05,10.0,South,4.6,-,N/A,,Clear,170,2013-05-27 07:15:00
2:35 AM,64.4,59.0,83,30.05,10.0,South,5.8,-,N/A,,Clear,170,2013-05-27 07:35:00
2:55 AM,66.2,60.8,83,30.05,10.0,South,5.8,-,N/A,,Clear,180,2013-05-27 07:55:00
3:15 AM,66.2,60.8,83,30.04,10.0,South,5.8,-,N/A,,Clear,190,2013-05-27 08:15:00
3:35 AM,64.4,59.0,83,30.04,10.0,SSW,4.6,-,N/A,,Clear,200,2013-05-27 08:35:00
3:55 AM,64.4,59.0,83,30.04,10.0,SSW,4.6,-,N/A,,Clear,200,2013-05-27 08:55:00
4:15 AM,62.6,59.0,88,30.05,10.0,SSW,4.6,-,N/A,,Clear,200,2013-05-27 09:15:00
4:35 AM,62.6,57.2,82,30.04,10.0,South,3.5,-,N/A,,Clear,190,2013-05-27 09:35:00
4:55 AM,62.6,59.0,88,30.05,10.0,South,3.5,-,N/A,,Scattered Clouds,190,2013-05-27 09:55:00
5:15 AM,62.6,59.0,88,30.05,10.0,South,3.5,-,N/A,,Scattered Clouds,180,2013-05-27 10:15:00
5:35 AM,62.6,57.2,82,30.05,10.0,South,4.6,-,N/A,,Clear,190,2013-05-27 10:35:00
5:55 AM,62.6,59.0,88,30.05,10.0,South,4.6,-,N/A,,Clear,180,2013-05-27 10:55:00
6:15 AM,64.4,59.0,83,30.04,10.0,South,4.6,-,N/A,,Clear,180,2013-05-27 11:15:00
6:35 AM,64.4,59.0,83,30.04,10.0,SSW,6.9,-,N/A,,Clear,200,2013-05-27 11:35:00
6:55 AM,66.2,60.8,83,30.02,10.0,South,9.2,-,N/A,,Clear,190,2013-05-27 11:55:00
7:15 AM,66.2,60.8,83,30.01,10.0,South,9.2,-,N/A,,Clear,190,2013-05-27 12:15:00
7:35 AM,68.0,60.8,78,30.01,10.0,South,10.4,-,N/A,,Clear,190,2013-05-27 12:35:00
7:55 AM,69.8,60.8,73,30.01,10.0,South,12.7,-,N/A,,Clear,190,2013-05-27 12:55:00
8:15 AM,69.8,62.6,78,30.01,10.0,South,9.2,-,N/A,,Clear,190,2013-05-27 13:15:00
8:35 AM,71.6,62.6,73,30.02,10.0,SSW,10.4,-,N/A,,Clear,200,2013-05-27 13:35:00
8:55 AM,73.4,64.4,73,30.02,10.0,SSW,11.5,-,N/A,,Clear,200,2013-05-27 13:55:00
9:15 AM,73.4,64.4,73,30.02,10.0,SSW,9.2,-,N/A,,Clear,210,2013-05-27 14:15:00
9:35 AM,75.2,66.2,73,30.02,10.0,SW,10.4,-,N/A,,Clear,220,2013-05-27 14:35:00
9:55 AM,77.0,66.2,69,30.02,10.0,SW,12.7,19.6,N/A,,Clear,220,2013-05-27 14:55:00
10:15 AM,78.8,66.2,65,30.02,10.0,SW,10.4,17.3,N/A,,Clear,220,2013-05-27 15:15:00
10:35 AM,80.6,66.2,61,30.01,10.0,SSW,9.2,19.6,N/A,,Clear,210,2013-05-27 15:35:00
10:55 AM,80.6,64.4,58,30.01,10.0,SW,17.3,24.2,N/A,,Clear,220,2013-05-27 15:55:00
11:15 AM,80.6,64.4,58,30.00,10.0,SW,13.8,-,N/A,,Clear,230,2013-05-27 16:15:00
11:35 AM,82.4,66.2,58,29.99,10.0,SSW,13.8,24.2,N/A,,Clear,200,2013-05-27 16:35:00
11:55 AM,82.4,66.2,58,29.97,10.0,SSW,18.4,25.3,N/A,,Clear,200,2013-05-27 16:55:00
12:15 PM,82.4,64.4,54,29.97,10.0,SSW,17.3,26.5,N/A,,Clear,200,2013-05-27 17:15:00
12:35 PM,82.4,64.4,54,29.97,10.0,SSW,20.7,29.9,N/A,,Clear,210,2013-05-27 17:35:00
12:55 PM,82.4,64.4,54,29.98,10.0,SW,16.1,27.6,N/A,,Clear,230,2013-05-27 17:55:00
1:15 PM,84.2,64.4,51,29.98,10.0,SSW,17.3,-,N/A,,Scattered Clouds,200,2013-05-27 18:15:00
1:35 PM,84.2,64.4,51,29.98,10.0,SSW,15.0,25.3,N/A,,Scattered Clouds,200,2013-05-27 18:35:00
1:55 PM,82.4,62.6,51,29.98,10.0,SSW,16.1,24.2,N/A,,Scattered Clouds,210,2013-05-27 18:55:00
2:15 PM,84.2,62.6,48,29.97,10.0,SSW,18.4,23.0,N/A,,Scattered Clouds,200,2013-05-27 19:15:00
2:35 PM,84.2,60.8,45,29.96,10.0,SSW,19.6,24.2,N/A,,Scattered Clouds,200,2013-05-27 19:35:00
2:55 PM,84.2,60.8,45,29.95,10.0,SSW,12.7,21.9,N/A,,Clear,210,2013-05-27 19:55:00
3:15 PM,82.4,57.2,42,29.95,10.0,SW,15.0,25.3,N/A,,Scattered Clouds,220,2013-05-27 20:15:00
3:35 PM,84.2,57.2,40,29.94,10.0,SSW,20.7,25.3,N/A,,Scattered Clouds,200,2013-05-27 20:35:00
3:55 PM,82.4,57.2,42,29.94,10.0,SSW,20.7,26.5,N/A,,Scattered Clouds,200,2013-05-27 20:55:00
4:15 PM,84.2,57.2,40,29.93,10.0,SSW,17.3,27.6,N/A,,Scattered Clouds,200,2013-05-27 21:15:00
4:35 PM,82.4,57.2,42,29.93,10.0,SSW,18.4,25.3,N/A,,Scattered Clouds,200,2013-05-27 21:35:00
4:55 PM,82.4,60.8,48,29.93,10.0,SSW,16.1,24.2,N/A,,Scattered Clouds,200,2013-05-27 21:55:00
5:15 PM,80.6,62.6,54,29.93,10.0,SSW,17.3,23.0,N/A,,Scattered Clouds,200,2013-05-27 22:15:00
5:35 PM,80.6,64.4,58,29.92,10.0,SSW,13.8,18.4,N/A,,Scattered Clouds,200,2013-05-27 22:35:00
5:55 PM,80.6,64.4,58,29.92,10.0,SSW,12.7,-,N/A,,Scattered Clouds,200,2013-05-27 22:55:00
6:15 PM,77.0,64.4,65,29.97,10.0,NNW,13.8,27.6,N/A,Rain,Light Rain,330,2013-05-27 23:15:00
6:35 PM,66.2,62.6,88,29.99,1.5,WNW,9.2,26.5,0.33,Rain-Thunderstorm,Heavy Thunderstorms and Rain,300,2013-05-27 23:35:00
6:55 PM,66.2,62.6,88,29.99,7.0,WSW,5.8,-,0.52,Rain-Thunderstorm,Rain,250,2013-05-27 23:55:00
7:15 PM,66.2,62.6,88,29.98,10.0,WSW,4.6,-,0.04,Rain,Rain,250,2013-05-28 00:15:00
7:35 PM,66.2,62.6,88,29.94,10.0,Calm,Calm,-,0.06,Rain-Thunderstorm,Light Thunderstorms and Rain,0,2013-05-28 00:35:00
7:55 PM,66.2,62.6,88,29.90,10.0,SSE,6.9,-,0.08,Rain,Rain,160,2013-05-28 00:55:00
8:15 PM,66.2,62.6,88,29.88,10.0,South,12.7,-,0.01,Rain,Light Rain,170,2013-05-28 01:15:00
8:35 PM,66.2,62.6,88,29.85,10.0,South,17.3,26.5,0.01,Rain,Light Rain,170,2013-05-28 01:35:00
8:55 PM,66.2,62.6,88,29.89,10.0,South,5.8,-,0.01,,Clear,170,2013-05-28 01:55:00
9:15 PM,66.2,64.4,94,29.91,10.0,South,6.9,-,N/A,,Clear,170,2013-05-28 02:15:00
9:35 PM,66.2,62.6,88,29.91,10.0,South,8.1,-,N/A,,Clear,180,2013-05-28 02:35:00
9:55 PM,66.2,62.6,88,29.91,10.0,SSE,5.8,-,N/A,,Clear,160,2013-05-28 02:55:00
10:15 PM,66.2,62.6,88,29.92,10.0,SSE,8.1,-,N/A,,Clear,160,2013-05-28 03:15:00
10:35 PM,66.2,64.4,94,29.93,10.0,SSE,4.6,-,N/A,,Clear,150,2013-05-28 03:35:00
10:55 PM,66.2,64.4,94,29.93,10.0,SSE,4.6,-,N/A,,Clear,150,2013-05-28 03:55:00
11:15 PM,66.2,64.4,94,29.93,10.0,SSE,6.9,-,N/A,,Clear,160,2013-05-28 04:15:00
11:35 PM,66.2,64.4,94,29.93,10.0,South,6.9,-,N/A,,Clear,170,2013-05-28 04:35:00
11:55 PM,66.2,64.4,94,29.94,10.0,South,4.6,-,N/A,,Clear,170,2013-05-28 04:55:00